Tampa, FL

2:24 PM EDT on July 22, 2017 (GMT -0400)
Tampa International

Weather History for KTPA - December, 2013

Change the Weather History Date:

Sunday, December 29, 2013

  Actual Average Record
Temperature  
Mean Temperature 68 °F 61 °F  
Max Temperature 74 °F 70 °F 85 °F (1990)
Min Temperature 62 °F 52 °F 19 °F (1894)
Degree Days  
Heating Degree Days 0 6  
Month to date heating degree days 32 127  
Since 1 July heating degree days 62 171  
Cooling Degree Days 3 2  
Month to date cooling degree days 150 74  
Year to date cooling degree days 3886 3604  
Growing Degree Days 18 (Base 50)    
Moisture  
Dew Point 68 °F    
Average Humidity 90    
Maximum Humidity 93    
Minimum Humidity 87    
Precipitation  
Precipitation 0.54 in 0.07 in 1.35 in (1983)
Month to date precipitation 0.81 2.33  
Year to date precipitation 52.48 46.16  
Sea Level Pressure  
Sea Level Pressure 29.96 in    
Wind  
Wind Speed 7 mph (SSW)    
Max Wind Speed 18 mph    
Max Gust Speed 28 mph    
Visibility 7 miles    
Events Fog , Rain    
T = Trace of Precipitation, MM = Missing Value Source: NWS Daily Summary

Daily Weather History Graph

Daily Weather History Graph

Search for Another Location

Airport or City:

Trip Planner

Search our weather history database for the weather conditions in past years. The results will help you decide how hot, cold, wet, or windy it might be!

Date:

Astronomy

Dec. 29, 2013 Rise Set
Actual Time 7:20 AM EST 5:44 PM EST
Civil Twilight 6:54 AM EST 6:09 PM EST
Nautical Twilight 6:25 AM EST 6:39 PM EST
Astronomical Twilight 5:57 AM EST 7:07 PM EST
Moon 4:09 AM EST (12/29) 3:15 PM EST (12/29)
Length of Visible Light 11h 14m
Length of Day
10h 23m
Waning Crescent, 11% of the Moon is Illuminated
Dec 29
Waning Crescent
Jan 1
New
Jan 7
First Quarter
Jan 15
Full
Jan 24
Last Quarter

Hourly Weather History & Observations

Time (EST) Temp. Dew Point Humidity Pressure Visibility Wind Dir Wind Speed Gust Speed Precip Events Conditions
12:53 AM 72.0 °F 68.0 °F 87% 30.00 in 10.0 mi SE 6.9 mph - N/A   Overcast
1:53 AM 72.0 °F 68.0 °F 87% 29.97 in 10.0 mi SE 9.2 mph - N/A   Overcast
2:53 AM 72.0 °F 68.0 °F 87% 29.93 in 10.0 mi SSE 11.5 mph 19.6 mph N/A   Overcast
3:53 AM 72.0 °F 69.1 °F 91% 29.92 in 10.0 mi SSE 11.5 mph 21.9 mph N/A   Overcast
4:53 AM 72.0 °F 69.1 °F 91% 29.94 in 10.0 mi SSE 6.9 mph - N/A   Overcast
5:13 AM 73.4 °F 69.8 °F 88% 29.94 in 10.0 mi SSE 11.5 mph 18.4 mph N/A   Overcast
5:53 AM 73.0 °F 70.0 °F 90% 29.96 in 10.0 mi SSE 9.2 mph 19.6 mph 0.00 in Rain Light Rain
6:15 AM 71.6 °F 69.8 °F 94% 29.96 in 10.0 mi SSE 10.4 mph - 0.00 in Rain Light Rain
6:48 AM 71.6 °F 69.8 °F 94% 29.94 in 10.0 mi SSE 4.6 mph - 0.00 in   Overcast
6:53 AM 72.0 °F 70.0 °F 93% 29.94 in 10.0 mi Variable 5.8 mph - 0.00 in   Overcast
7:10 AM 73.4 °F 69.8 °F 88% 29.94 in 10.0 mi South 9.2 mph - 0.00 in Rain Light Rain
7:40 AM 73.4 °F 69.8 °F 88% 29.97 in 10.0 mi SSW 11.5 mph 18.4 mph 0.00 in   Overcast
7:53 AM 72.0 °F 69.1 °F 91% 29.98 in 9.0 mi SSW 10.4 mph - 0.00 in   Overcast
8:08 AM 71.6 °F 69.8 °F 94% 29.98 in 9.0 mi SSW 8.1 mph - N/A   Overcast
8:33 AM 71.6 °F 69.8 °F 94% 29.98 in 8.0 mi SSW 5.8 mph - N/A   Overcast
8:41 AM 71.6 °F 69.8 °F 94% 29.99 in 8.0 mi SSW 6.9 mph - N/A   Overcast
8:53 AM 71.1 °F 70.0 °F 96% 30.01 in 8.0 mi SSW 9.2 mph - N/A   Overcast
9:51 AM 71.6 °F 69.8 °F 94% 30.02 in 9.0 mi SSW 9.2 mph - N/A   Overcast
9:53 AM 72.0 °F 70.0 °F 93% 30.02 in 9.0 mi SSW 8.1 mph - N/A   Overcast
10:01 AM 71.6 °F 69.8 °F 94% 30.02 in 9.0 mi SSW 6.9 mph - N/A   Overcast
10:49 AM 73.4 °F 69.8 °F 88% 30.01 in 9.0 mi Variable 3.5 mph - N/A   Overcast
10:51 AM 73.4 °F 69.8 °F 88% 30.01 in 9.0 mi SSW 4.6 mph - N/A   Overcast
10:53 AM 73.9 °F 70.0 °F 87% 30.01 in 9.0 mi SW 4.6 mph - N/A   Overcast
11:15 AM 73.4 °F 69.8 °F 88% 30.00 in 8.0 mi South 4.6 mph - N/A   Overcast
11:53 AM 73.0 °F 69.1 °F 87% 29.99 in 10.0 mi South 4.6 mph - N/A   Overcast
12:20 PM 73.4 °F 69.8 °F 88% 29.97 in 8.0 mi South 8.1 mph - 0.00 in Rain Light Rain
12:35 PM 73.4 °F 69.8 °F 88% 29.96 in 7.0 mi South 8.1 mph - 0.00 in Rain Light Rain
12:42 PM 71.6 °F 69.8 °F 94% 29.96 in 7.0 mi South 6.9 mph - 0.00 in   Light Drizzle
12:53 PM 72.0 °F 70.0 °F 93% 29.95 in 6.0 mi South 5.8 mph - 0.00 in   Light Drizzle
1:01 PM 71.6 °F 69.8 °F 94% 29.94 in 0.5 mi South 4.6 mph - 0.06 in Rain Light Rain
1:10 PM 71.6 °F 69.8 °F 94% 29.94 in 5.0 mi South 6.9 mph - 0.10 in Rain Light Rain
1:25 PM 71.6 °F 69.8 °F 94% 29.93 in 2.5 mi South 6.9 mph - 0.12 in Rain Light Rain
1:33 PM 71.6 °F 69.8 °F 94% 29.93 in 2.5 mi South 6.9 mph - 0.12 in Rain Light Rain
1:53 PM 71.1 °F 69.1 °F 93% 29.91 in 2.5 mi South 5.8 mph - 0.14 in Rain Light Rain
2:01 PM 71.6 °F 69.8 °F 94% 29.91 in 3.0 mi South 5.8 mph - 0.00 in Rain Light Rain
2:20 PM 71.6 °F 69.8 °F 94% 29.91 in 2.0 mi South 11.5 mph - 0.02 in Rain Light Rain
2:24 PM 71.6 °F 69.8 °F 94% 29.92 in 1.5 mi SSW 12.7 mph - 0.07 in Rain Rain
2:33 PM 71.6 °F 69.8 °F 94% 29.91 in 0.5 mi South 9.2 mph - 0.22 in Fog , Rain Heavy Rain
2:36 PM 71.6 °F 69.8 °F 94% 29.91 in 2.0 mi South 6.9 mph - 0.25 in Rain Light Rain
2:41 PM 71.6 °F 69.8 °F 94% 29.91 in 2.0 mi South 12.7 mph 19.6 mph 0.27 in Rain Light Rain
2:53 PM 71.1 °F 70.0 °F 96% 29.90 in 2.0 mi South 12.7 mph 19.6 mph 0.28 in Rain Light Rain
3:06 PM 71.6 °F 69.8 °F 94% 29.90 in 3.0 mi South 11.5 mph - 0.01 in Rain Light Rain
3:13 PM 71.6 °F 69.8 °F 94% 29.90 in 3.0 mi South 11.5 mph - 0.01 in Rain Light Rain
3:41 PM 69.8 °F 66.2 °F 88% 29.92 in 2.5 mi NNW 16.1 mph 20.7 mph 0.10 in Rain Light Rain
3:53 PM 66.0 °F 64.0 °F 93% 29.93 in 2.5 mi NW 13.8 mph - 0.12 in Rain Light Rain
4:23 PM 62.6 °F 60.8 °F 94% 29.94 in 5.0 mi NNW 15.0 mph 21.9 mph 0.00 in   Overcast
4:53 PM 64.0 °F 61.0 °F 90% 29.96 in 8.0 mi NNW 10.4 mph - 0.00 in   Overcast
5:53 PM 64.0 °F 61.0 °F 90% 29.97 in 10.0 mi NNW 3.5 mph - N/A   Mostly Cloudy
6:53 PM 64.0 °F 61.0 °F 90% 29.99 in 10.0 mi NW 5.8 mph - N/A   Overcast
7:53 PM 64.0 °F 61.0 °F 90% 30.01 in 10.0 mi WNW 6.9 mph - N/A   Scattered Clouds
8:53 PM 64.0 °F 61.0 °F 90% 30.02 in 10.0 mi WSW 3.5 mph - N/A   Overcast
9:53 PM 63.0 °F 61.0 °F 93% 30.03 in 10.0 mi North 3.5 mph - N/A   Partly Cloudy
10:53 PM 62.1 °F 60.1 °F 93% 30.04 in 10.0 mi Calm Calm - N/A   Clear
11:53 PM 62.1 °F 61.0 °F 96% 30.03 in 10.0 mi NNW 5.8 mph - N/A   Clear